Location: ?????????
(38.4921°N, 22.9787°E)
Time: 03:57:47
(UTC+00:00)

Meteor 2-20 Rocket - Pass Details

Date: 08 December 2025
Orbit: 871 x 1024 km, 82.5° (Epoch: 21 January)

Event Time Altitude Azimuth Distance (km) Brightness Sun altitude
Rises 04:18:07 0° 354° (N) 3,503 7.2 -14.3°
Reaches altitude 10° 04:20:36 10° 355° (N) 2,546 6.5 -13.8°
Maximum altitude 04:26:21 78° 83° (E) 895 4.4 -12.7°
Drops below altitude 10° 04:32:02 10° 169° (S) 2,512 7.1 -11.7°
Sets 04:34:27 0° 171° (S) 3,452 7.8 -11.2°
